N0TRB Weather Reports


Display with metric or nautical units.
time (UTC)temp
F
wind
direction
speed
MPH
gust
MPH
rain 1hr
in
rain 24hr
in
rain mn
in
humidity
%
barometer
mb
20260906183008 77 174 0.0 0.0 0.00 0.00 0.00 80 1015.7
20260906181516 76 138 0.0 0.0 0.00 0.00 0.00 81 1015.8
20260906180007 75 150 0.0 0.0 0.00 0.00 0.00 82 1016.0
20260906174506 75 136 0.0 0.0 0.00 0.00 0.00 82 1016.0
20260906173004 76 153 0.0 0.0 0.00 0.00 0.00 80 1016.0
20260906171504 77 107 0.0 0.0 0.00 0.00 0.00 79 1016.0
20260906170009 77 137 0.0 0.0 0.00 0.00 0.00 79 1016.2
20260906164503 77 139 0.0 0.0 0.00 0.00 0.00 80 1016.2
20260906163002 78 156 0.0 0.0 0.00 0.00 0.00 79 1016.2
20260906161504 78 116 0.0 0.0 0.00 0.00 0.00 79 1016.3
20260906160001 78 160 0.0 0.0 0.00 0.00 0.00 80 1016.2
20260906154501 78 144 0.0 0.0 0.00 0.00 0.00 79 1016.5
20260906153104 78 163 0.0 0.0 0.00 0.00 0.00 79 1016.5
20260906153003 78 146 0.0 0.0 0.00 0.00 0.00 79 1016.5
20260906151559 78 80 0.0 0.0 0.00 0.00 0.00 80 1016.6
20260906150056 77 145 0.0 0.0 0.00 0.00 0.00 82 1016.6
20260906144554 76 149 0.0 0.0 0.00 0.00 0.00 83 1016.4
20260906143051 74 155 0.0 0.0 0.00 0.00 0.00 86 1016.4
20260906141544 73 142 0.0 0.0 0.00 0.00 0.00 89 1016.3
20260906140048 72 114 0.0 0.0 0.00 0.00 0.00 91 1016.6
20260906134537 71 149 0.0 0.0 0.00 0.00 0.00 94 1016.5
20260906133038 70 129 0.0 0.0 0.00 0.00 0.00 96 1016.4
20260906131534 68 167 0.0 0.0 0.00 0.00 0.00 96 1016.1
20260906130034 67 145 0.0 0.0 0.00 0.00 0.00 95 1016.1
20260906124532 66 145 0.0 0.0 0.00 0.00 0.00 95 1016.2
20260906123034 66 144 0.0 0.0 0.00 0.00 0.00 95 1016.2
20260906121531 66 145 0.0 0.0 0.00 0.00 0.00 94 1016.2
20260906120028 66 145 0.0 0.0 0.00 0.00 0.00 94 1016.1
20260906114539 66 144 0.0 0.0 0.00 0.00 0.00 94 1016.0
20260906113027 67 145 0.0 0.0 0.00 0.00 0.00 94 1015.8
20260906111528 67 145 0.0 0.0 0.00 0.00 0.00 94 1015.7
20260906110022 67 145 0.0 0.0 0.00 0.00 0.00 94 1015.7
20260906104520 68 145 0.0 0.0 0.00 0.00 0.00 94 1015.6
20260906103017 68 145 0.0 0.0 0.00 0.00 0.00 94 1015.3
20260906101514 69 144 0.0 0.0 0.00 0.00 0.00 93 1015.4
20260906100017 69 145 0.0 0.0 0.00 0.00 0.00 93 1015.5
20260906094511 69 145 0.0 0.0 0.00 0.00 0.00 93 1015.2
20260906093011 70 145 0.0 0.0 0.00 0.00 0.00 93 1014.8
20260906091516 69 144 0.0 0.0 0.00 0.00 0.00 94 1014.8
20260906090009 69 178 0.0 0.0 0.00 0.00 0.00 93 1014.8
20260906084509 69 178 0.0 0.0 0.00 0.00 0.00 93 1014.9
20260906083011 69 179 0.0 0.0 0.00 0.00 0.00 93 1014.9
20260906081507 69 178 0.0 0.0 0.00 0.00 0.00 92 1014.8
20260906080008 69 179 0.0 0.0 0.00 0.00 0.00 92 1014.8
20260906074505 70 178 0.0 0.0 0.00 0.00 0.00 92 1014.6
20260906073004 70 179 0.0 0.0 0.00 0.00 0.00 91 1014.9
20260906071500 71 178 0.0 0.0 0.00 0.00 0.00 92 1014.7
20260906070058 71 178 0.0 0.0 0.00 0.00 0.00 91 1015.2
20260906064602 71 178 0.0 0.0 0.00 0.00 0.00 91 1015.2
20260906063057 71 178 0.0 0.0 0.00 0.00 0.00 91 1015.3
20260906061555 71 178 0.0 0.0 0.00 0.00 0.00 91 1015.1
20260906060137 71 179 0.0 0.0 0.00 0.00 0.00 91 1015.0
20260906054554 71 180 0.0 0.0 0.00 0.00 0.00 91 1015.1
20260906053054 71 180 0.0 0.0 0.00 0.00 0.00 91 1015.1
20260906051551 71 180 0.0 0.0 0.00 0.00 0.00 90 1015.1
20260906044548 72 181 0.0 0.0 0.00 0.00 0.00 89 1015.2
20260906043048 72 180 0.0 0.0 0.00 0.00 0.00 90 1015.3
20260906041547 73 180 0.0 0.0 0.00 0.00 0.00 89 1015.5
20260906040047 73 180 0.0 0.0 0.00 0.00 0.00 88 1015.4
20260906034556 73 180 0.0 0.0 0.00 0.00 0.00 87 1015.5
20260906033047 74 180 0.0 0.0 0.00 0.00 0.00 86 1015.5
20260906031608 75 180 0.0 0.0 0.00 0.00 0.00 85 1015.6
20260906030044 75 180 0.0 0.0 0.00 0.00 0.00 84 1015.7
20260906024554 76 180 0.0 0.0 0.00 0.00 0.00 84 1015.4
20260906023104 76 186 0.0 0.0 0.00 0.00 0.00 83 1015.6
20260906021543 75 186 0.0 0.0 0.00 0.00 0.00 83 1015.3
20260906020049 75 186 0.0 0.0 0.00 0.00 0.00 83 1014.8
20260906014542 74 186 0.0 0.0 0.00 0.00 0.00 82 1014.5
20260906013041 75 120 0.0 0.0 0.00 0.00 0.00 81 1013.7
20260906011541 76 120 0.0 0.0 0.00 0.00 0.00 79 1013.3
20260906010041 77 120 0.0 0.0 0.00 0.00 0.00 78 1013.0
20260906004547 78 120 0.0 0.0 0.00 0.00 0.00 75 1013.0
20260906003047 79 120 0.0 0.0 0.00 0.00 0.00 73 1012.9
20260906001544 80 120 0.0 0.0 0.00 0.00 0.00 71 1012.6
20260906000038 81 130 0.0 0.0 0.00 0.00 0.00 69 1012.6
20260905234539 83 101 0.0 0.0 0.00 0.00 0.00 67 1013.0
20260905233046 84 99 0.0 0.0 0.00 0.00 0.00 67 1012.9
20260905231539 84 111 0.0 0.0 0.00 0.00 0.00 67 1012.5
20260905230036 84 123 0.0 0.0 0.00 0.00 0.00 66 1012.7
20260905224536 85 105 0.0 0.0 0.00 0.00 0.00 66 1012.5
20260905223036 86 208 0.0 0.0 0.00 0.00 0.00 65 1012.3
20260905221541 87 32 0.0 0.0 0.00 0.00 0.00 63 1012.2
20260905220034 88 164 0.0 0.0 0.00 0.00 0.00 60 1012.4
20260905214531 87 121 0.0 0.0 0.00 0.00 0.00 61 1012.6
20260905213031 87 111 0.0 0.0 0.00 0.00 0.00 62 1012.8
20260905211529 87 333 0.0 0.0 0.00 0.00 0.00 64 1012.5
20260905210027 87 113 0.0 0.0 0.00 0.00 0.00 65 1012.9
20260905204526 86 88 0.0 0.0 0.00 0.00 0.00 66 1013.1
20260905203022 86 144 0.0 0.0 0.00 0.00 0.00 67 1013.5
20260905201521 85 121 0.0 0.0 0.00 0.00 0.00 68 1013.8
20260905200016 84 102 0.0 0.0 0.00 0.00 0.00 71 1014.3
20260905194514 83 54 0.0 0.0 0.00 0.00 0.00 72 1014.4
20260905193011 81 93 0.0 0.0 0.00 0.00 0.00 75 1014.5
20260905191507 80 97 0.0 0.0 0.00 0.00 0.00 77 1014.8
20260905190019 80 97 0.0 0.0 0.00 0.00 0.00 77 1015.0
20260905184506 79 123 0.0 0.0 0.00 0.00 0.00 80 1014.9